EWG7269 LPMA-EDDH

Flight info

Callsign EWG7269
Flight time N/A
Altitude 34000
Route DEGUN DCT ROLAR DCT VERAM/N0449F360 DCT ASMAR DCT DEMOS DCT LOTEE DCT AZFIC UN741 ERIGA DCT GODIX DCT PODEM UN873 BAZOS DCT BELDI DCT VEKIN DCT ADUTO/N0449F370 DCT VICOT DCT PABCO M105 RIBSO RIBSO7A
Aircraft A320/M-SDE3FGHIRWY/LB1

Departure

Time N/A
Airport Cristiano Ronaldo International Airport (LPMA)

Arrival

Time 2026-05-05 18:44
Airport Hamburg Helmut Schmidt Airport (EDDH)
Time Latitude Longitude Altitude Speed Heading
2026-05-05 17:28 47.88970 -0.79540 34897 ft 447 kts 48°
2026-05-05 17:29 47.93246 -0.72822 34888 ft 446 kts 48°
2026-05-05 17:29 47.97511 -0.66095 34891 ft 446 kts 49°
2026-05-05 17:30 48.01778 -0.59356 34884 ft 446 kts 49°
2026-05-05 17:30 48.06040 -0.52613 34901 ft 446 kts 49°
2026-05-05 17:31 48.10291 -0.45864 34905 ft 446 kts 49°
2026-05-05 17:31 48.14538 -0.39105 34908 ft 446 kts 49°
2026-05-05 17:32 48.18787 -0.32331 34907 ft 446 kts 49°
2026-05-05 17:32 48.23026 -0.25547 34902 ft 446 kts 49°
2026-05-05 17:33 48.27229 -0.18793 34903 ft 445 kts 49°
2026-05-05 17:33 48.31461 -0.11989 34911 ft 445 kts 49°
2026-05-05 17:34 48.35683 -0.05178 34916 ft 445 kts 49°
2026-05-05 17:34 48.39834 0.01733 34905 ft 445 kts 51°
2026-05-05 17:35 48.43872 0.08800 34895 ft 445 kts 52°
2026-05-05 17:36 48.51781 0.22646 34882 ft 446 kts 51°
2026-05-05 17:36 48.56516 0.30872 34886 ft 446 kts 51°
2026-05-05 17:37 48.59916 0.36804 34883 ft 446 kts 51°
2026-05-05 17:37 48.63950 0.43878 34883 ft 446 kts 52°
2026-05-05 17:38 48.67997 0.50991 34881 ft 446 kts 51°
2026-05-05 17:38 48.72041 0.58100 34882 ft 445 kts 51°
2026-05-05 17:39 48.76074 0.65222 34886 ft 445 kts 52°
2026-05-05 17:39 48.80093 0.72354 34884 ft 445 kts 52°
2026-05-05 17:40 48.84114 0.79493 34882 ft 445 kts 52°
2026-05-05 17:40 48.88127 0.86638 34880 ft 445 kts 52°
2026-05-05 17:41 48.92134 0.93799 34873 ft 445 kts 52°
2026-05-05 17:41 48.96143 1.00963 34872 ft 444 kts 52°
2026-05-05 17:42 49.00141 1.08137 34867 ft 444 kts 52°
2026-05-05 17:42 49.04131 1.15325 34864 ft 444 kts 52°
2026-05-05 17:43 49.08109 1.22502 34847 ft 443 kts 52°
2026-05-05 17:43 49.12089 1.29693 34851 ft 443 kts 52°
2026-05-05 17:44 49.16068 1.36906 34843 ft 443 kts 52°
2026-05-05 17:44 49.20036 1.44127 34841 ft 444 kts 52°
2026-05-05 17:45 49.23998 1.51370 34840 ft 444 kts 52°
2026-05-05 17:45 49.28163 1.58272 34840 ft 446 kts 46°
2026-05-05 17:46 49.32662 1.64818 34834 ft 446 kts 46°
2026-05-05 17:46 49.37160 1.71376 34834 ft 447 kts 46°
2026-05-05 17:47 49.41663 1.77965 34833 ft 447 kts 46°
2026-05-05 17:47 49.46161 1.84569 34835 ft 448 kts 46°
2026-05-05 17:48 49.50658 1.91212 34844 ft 448 kts 46°
2026-05-05 17:48 49.55156 1.97861 34841 ft 449 kts 46°
2026-05-05 17:49 49.59662 2.04533 34846 ft 449 kts 46°
2026-05-05 17:49 49.64166 2.11225 34851 ft 450 kts 46°
2026-05-05 17:50 49.68667 2.17949 34854 ft 449 kts 46°
2026-05-05 17:50 49.73156 2.24669 34847 ft 449 kts 46°
2026-05-05 17:51 49.77647 2.31411 34837 ft 450 kts 47°
2026-05-05 17:51 49.82150 2.38173 34836 ft 451 kts 47°
2026-05-05 17:52 49.86649 2.44959 34840 ft 452 kts 47°
2026-05-05 17:52 49.91130 2.51715 34845 ft 452 kts 47°
2026-05-05 17:53 49.95636 2.58544 34847 ft 452 kts 47°
2026-05-05 17:53 50.00139 2.65390 34852 ft 453 kts 47°
2026-05-05 17:54 50.04635 2.72253 34850 ft 453 kts 47°
2026-05-05 17:54 50.09136 2.79130 34847 ft 453 kts 47°
2026-05-05 17:55 50.13629 2.86011 34845 ft 453 kts 47°
2026-05-05 17:55 50.18116 2.92901 34841 ft 453 kts 47°
2026-05-05 17:56 50.22603 2.99814 34842 ft 453 kts 47°
2026-05-05 17:56 50.27088 3.06752 34845 ft 454 kts 47°
2026-05-05 17:57 50.31571 3.13704 34845 ft 453 kts 47°
2026-05-05 17:57 50.36049 3.20663 34848 ft 454 kts 48°
2026-05-05 17:58 50.40694 3.27280 34831 ft 457 kts 37°
2026-05-05 17:58 50.46302 3.32096 34833 ft 461 kts 28°
2026-05-05 17:59 50.52058 3.36574 34836 ft 462 kts 28°
2026-05-05 17:59 50.57915 3.40812 34842 ft 464 kts 26°
2026-05-05 18:00 50.63850 3.44835 34834 ft 465 kts 25°
2026-05-05 18:00 50.69799 3.48909 34843 ft 466 kts 25°
2026-05-05 18:01 50.75726 3.53073 34852 ft 466 kts 26°
2026-05-05 18:01 50.81646 3.57284 34855 ft 466 kts 26°
2026-05-05 18:02 50.87575 3.61499 34853 ft 467 kts 26°
2026-05-05 18:02 50.93511 3.65706 34854 ft 467 kts 26°
2026-05-05 18:03 50.99447 3.69919 34857 ft 468 kts 26°
2026-05-05 18:03 51.05354 3.74132 34862 ft 468 kts 26°
2026-05-05 18:04 51.11300 3.78388 34867 ft 468 kts 26°
2026-05-05 18:04 51.17254 3.82665 34857 ft 469 kts 26°
2026-05-05 18:05 51.23209 3.86950 34860 ft 470 kts 26°
2026-05-05 18:05 51.29169 3.91247 34864 ft 470 kts 25°
2026-05-05 18:06 51.35136 3.95558 34856 ft 471 kts 25°
2026-05-05 18:06 51.41107 3.99890 34858 ft 471 kts 26°
2026-05-05 18:07 51.46954 4.04614 34874 ft 469 kts 36°
2026-05-05 18:07 51.51800 4.11510 34877 ft 465 kts 50°
2026-05-05 18:08 51.56121 4.19258 34879 ft 466 kts 50°
2026-05-05 18:08 51.60455 4.27017 34879 ft 466 kts 50°
2026-05-05 18:09 51.64793 4.34783 34878 ft 466 kts 50°
2026-05-05 18:09 51.69121 4.42573 34878 ft 466 kts 50°
2026-05-05 18:10 51.73438 4.50388 34885 ft 467 kts 50°
2026-05-05 18:10 51.77750 4.58236 34884 ft 467 kts 51°
2026-05-05 18:11 51.82061 4.66091 34883 ft 467 kts 50°
2026-05-05 18:11 51.86373 4.73953 34883 ft 467 kts 51°
2026-05-05 18:12 51.90661 4.81801 34892 ft 467 kts 51°
2026-05-05 18:12 51.94963 4.89693 34874 ft 468 kts 51°
2026-05-05 18:13 51.99267 4.97627 34873 ft 469 kts 51°
2026-05-05 18:13 52.03566 5.05596 34876 ft 470 kts 51°
2026-05-05 18:14 52.07873 5.13593 34879 ft 470 kts 51°
2026-05-05 18:14 52.12185 5.21617 34882 ft 471 kts 51°
2026-05-05 18:15 52.16498 5.29655 34887 ft 471 kts 51°
2026-05-05 18:15 52.20812 5.37717 34894 ft 472 kts 51°
2026-05-05 18:16 52.25100 5.45757 34881 ft 473 kts 51°
2026-05-05 18:16 52.29418 5.53905 34887 ft 475 kts 51°
2026-05-05 18:17 52.33739 5.62085 34893 ft 476 kts 51°
2026-05-05 18:17 52.37339 5.68909 34885 ft 476 kts 51°
2026-05-05 18:18 52.41665 5.77144 34890 ft 477 kts 51°
2026-05-05 18:18 52.45989 5.85398 34899 ft 477 kts 51°
2026-05-05 18:19 52.50189 5.93826 34899 ft 476 kts 57°
2026-05-05 18:19 52.53912 6.02823 34878 ft 476 kts 59°
2026-05-05 18:20 52.57590 6.11907 34880 ft 478 kts 59°
2026-05-05 18:20 52.61267 6.21033 34900 ft 479 kts 58°
2026-05-05 18:21 52.64962 6.30184 34897 ft 480 kts 58°
2026-05-05 18:21 52.68642 6.39292 34899 ft 481 kts 58°
2026-05-05 18:22 52.72335 6.48496 34899 ft 481 kts 58°
2026-05-05 18:22 52.76020 6.57720 34884 ft 482 kts 59°
2026-05-05 18:23 52.79714 6.66987 34886 ft 483 kts 59°
2026-05-05 18:23 52.83414 6.76277 34905 ft 484 kts 58°
2026-05-05 18:24 52.87111 6.85614 34907 ft 485 kts 58°
2026-05-05 18:24 52.90799 6.94985 34905 ft 485 kts 58°
2026-05-05 18:25 52.94485 7.04363 34907 ft 486 kts 58°
2026-05-05 18:25 52.98174 7.13764 34882 ft 486 kts 59°
2026-05-05 18:26 53.01548 7.23442 34880 ft 481 kts 76°
2026-05-05 18:26 53.03124 7.34162 34894 ft 480 kts 77°
2026-05-05 18:27 53.04987 7.44841 34888 ft 482 kts 76°
2026-05-05 18:27 53.06894 7.55547 34655 ft 484 kts 76°
2026-05-05 18:27 53.07846 7.60926 34418 ft 484 kts 76°
2026-05-05 18:28 53.09731 7.71718 33920 ft 488 kts 78°
2026-05-05 18:28 53.10668 7.77153 33185 ft 491 kts 77°
2026-05-05 18:28 53.11609 7.82656 32157 ft 496 kts 77°
2026-05-05 18:29 53.12554 7.88188 31162 ft 498 kts 77°
2026-05-05 18:29 53.13505 7.93764 30103 ft 503 kts 76°
2026-05-05 18:29 53.14462 7.99376 28845 ft 498 kts 76°
2026-05-05 18:29 53.15387 8.04802 27770 ft 492 kts 76°
2026-05-05 18:30 53.16317 8.10271 27056 ft 487 kts 76°
2026-05-05 18:30 53.17244 8.15734 26315 ft 481 kts 76°
2026-05-05 18:30 53.18138 8.21012 25581 ft 476 kts 76°
2026-05-05 18:30 53.19033 8.26303 24883 ft 471 kts 76°
2026-05-05 18:31 53.19913 8.31539 24179 ft 467 kts 76°
2026-05-05 18:31 53.20778 8.36727 23493 ft 463 kts 76°
2026-05-05 18:31 53.21637 8.41893 22736 ft 458 kts 76°
2026-05-05 18:31 53.22478 8.46981 22104 ft 451 kts 76°
2026-05-05 18:32 53.23307 8.52004 21474 ft 446 kts 76°
2026-05-05 18:32 53.24124 8.56957 20867 ft 440 kts 76°
2026-05-05 18:32 53.24931 8.61852 20297 ft 434 kts 76°
2026-05-05 18:32 53.25726 8.66688 19745 ft 429 kts 76°
2026-05-05 18:33 53.26505 8.71452 19208 ft 423 kts 76°
2026-05-05 18:33 53.27271 8.76160 18688 ft 417 kts 76°
2026-05-05 18:33 53.28026 8.80801 18202 ft 411 kts 76°
2026-05-05 18:33 53.28762 8.85334 17696 ft 405 kts 76°
2026-05-05 18:34 53.29494 8.89845 17213 ft 399 kts 75°
2026-05-05 18:34 53.30213 8.94288 16739 ft 393 kts 76°
2026-05-05 18:34 53.30920 8.98680 16251 ft 389 kts 76°
2026-05-05 18:34 53.31619 9.03042 15767 ft 385 kts 76°
2026-05-05 18:35 53.32310 9.07348 15257 ft 382 kts 75°
2026-05-05 18:35 53.32996 9.11637 14758 ft 380 kts 75°
2026-05-05 18:35 53.33678 9.15904 14230 ft 378 kts 75°
2026-05-05 18:35 53.34356 9.20144 13694 ft 377 kts 76°
2026-05-05 18:36 53.35031 9.24379 13109 ft 375 kts 75°
2026-05-05 18:36 53.35698 9.28584 12616 ft 371 kts 75°
2026-05-05 18:36 53.36350 9.32637 12303 ft 349 kts 75°
2026-05-05 18:36 53.36974 9.36473 11841 ft 334 kts 75°
2026-05-05 18:37 53.37573 9.40150 11398 ft 321 kts 75°
2026-05-05 18:37 53.38151 9.43697 10926 ft 311 kts 75°
2026-05-05 18:37 53.38713 9.47153 10375 ft 305 kts 75°
2026-05-05 18:37 53.39334 9.50526 9768 ft 301 kts 66°
2026-05-05 18:38 53.40426 9.53474 9108 ft 297 kts 49°
2026-05-05 18:38 53.41750 9.56098 8457 ft 293 kts 49°
2026-05-05 18:38 53.43057 9.58693 7814 ft 289 kts 49°
2026-05-05 18:38 53.44347 9.61260 7207 ft 285 kts 50°
2026-05-05 18:39 53.45604 9.63770 6889 ft 277 kts 50°
2026-05-05 18:39 53.46844 9.66247 6407 ft 274 kts 50°
2026-05-05 18:39 53.48057 9.68674 5773 ft 270 kts 50°
2026-05-05 18:39 53.49240 9.71043 5139 ft 266 kts 50°
2026-05-05 18:40 53.50428 9.73423 4423 ft 265 kts 50°
2026-05-05 18:40 53.51603 9.75786 3694 ft 262 kts 50°
2026-05-05 18:40 53.52764 9.78133 3034 ft 258 kts 50°
2026-05-05 18:40 53.53885 9.80383 2612 ft 241 kts 50°
2026-05-05 18:41 53.54896 9.82413 2297 ft 212 kts 50°
2026-05-05 18:41 53.55793 9.84216 2019 ft 191 kts 51°
2026-05-05 18:41 53.56607 9.85850 1783 ft 172 kts 51°
2026-05-05 18:41 53.57329 9.87303 1568 ft 152 kts 51°
2026-05-05 18:42 53.57975 9.88603 1358 ft 139 kts 52°
2026-05-05 18:42 53.58578 9.89819 1152 ft 133 kts 51°
2026-05-05 18:42 53.59165 9.91003 939 ft 132 kts 51°
2026-05-05 18:42 53.59751 9.92184 761 ft 131 kts 51°
2026-05-05 18:43 53.60330 9.93357 567 ft 130 kts 51°
2026-05-05 18:43 53.60902 9.94544 400 ft 131 kts 49°
2026-05-05 18:43 53.61503 9.95720 220 ft 132 kts 51°
2026-05-05 18:43 53.62084 9.96896 85 ft 129 kts 50°
2026-05-05 18:44 53.62621 9.97982 42 ft 101 kts 50°
2026-05-05 18:44 53.62983 9.98711 45 ft 69 kts 51°
2026-05-05 18:44 53.63218 9.99190 47 ft 31 kts 51°
2026-05-05 18:44 53.63290 9.99451 47 ft 21 kts 84°
2026-05-05 18:45 53.63281 9.99617 48 ft 5 kts 101°
2026-05-05 18:45 53.63281 9.99618 48 ft 0 kts 101°
2026-05-05 18:46 53.63280 9.99628 48 ft 5 kts 101°
2026-05-05 18:46 53.63276 9.99734 48 ft 10 kts 80°
2026-05-05 18:46 53.63319 9.99846 48 ft 15 kts 49°
2026-05-05 18:46 53.63410 10.00028 48 ft 21 kts 50°
2026-05-05 18:47 53.63413 10.00207 48 ft 17 kts 143°
2026-05-05 18:47 53.63339 10.00240 48 ft 8 kts 151°
2026-05-05 18:47 53.63329 10.00317 48 ft 5 kts 84°
2026-05-05 18:47 53.63331 10.00350 48 ft 2 kts 86°
2026-05-05 18:48 53.63331 10.00354 48 ft 0 kts 86°